Regional Weather Roundup
Issued by NWS Northern Indiana

Home | Current Version | Previous Version | Graphics & Text | Print | Product List | Glossary On
Versions: 1 2 3 4 5 6 7 8 9 10 11 12 13 14 15 16 17 18 19 20 21 22 23 24 25 26 27 28 29 30 31 32 33 34 35 36 37 38 39 40 41 42 43 44 45 46 47 48 49 50
000
ASUS43 KIWX 192300
RWRIWX

KIWX WEATHER ROUNDUP
NATIONAL WEATHER SERVICE NORTHERN INDIANA
700 PM EDT SAT APR 19 2014

NOTE: "FAIR" INDICATES FEW OR NO CLOUDS BELOW 12,000 FEET WITH NO
SIGNIFICANT WEATHER AND/OR OBSTRUCTIONS TO VISIBILITY.

* THESE STATIONS ARE NOT UNDER NWS QUALITY CONTROL. THEY ALSO MAY NOT
  REPORT WEATHER SUCH AS PRECIPITATION OR FOG.

INZ001>027-200000-
NORTHERN INDIANA

CITY           SKY/WX    TMP DP  RH WIND       PRES   REMARKS
GARY*          PTSUNNY   54  39  58 NE5       30.25F
VALPARAISO     SUNNY     63  33  32 SE10      30.25F
SOUTH BEND     SUNNY     63  34  33 SE9       30.28S
GOSHEN         SUNNY     62  34  35 SE13      30.28S
ANGOLA*        SUNNY     55  28  35 E12       30.31S
FORT WAYNE     MOSUNNY   58  28  32 E14       30.30S
PERU/GRISSOM   SUNNY     63  37  38 E13       30.27R

$$
INZ028>050-200000-
CENTRAL INDIANA

CITY           SKY/WX    TMP DP  RH WIND       PRES   REMARKS
LAFAYETTE      SUNNY     64  37  36 E15       30.24S
KOKOMO*        SUNNY     63  36  36 E14       30.26F
MUNCIE*        SUNNY     61  33  35 E12       30.27S
INDIANAPOLIS   MOSUNNY   65  36  34 E12       30.24S

$$
MIZ043>046-050>051-056>058-064>065-071>073-077>080-200000-
SOUTHWEST LOWER MICHIGAN

CITY           SKY/WX    TMP DP  RH WIND       PRES   REMARKS
BATTLE CREEK   MOSUNNY   60  27  28 SE9       30.30S
BENTON HARBOR  MOSUNNY   62  35  36 SE9       30.26F
COLDWATER*     SUNNY     55  28  34 SE9       30.31S
HILLSDALE*     SUNNY     55  28  35 E9        30.32S
HOLLAND        MOSUNNY   63  29  27 SE7G17    30.27F
GRAND RAPIDS   PTSUNNY   61  27  27 E10G21    30.29F
KALAMAZOO      MOSUNNY   61  28  28 SE7       30.29S
STURGIS*       SUNNY     57  30  35 E10       30.29S
THREE RIVERS*  FAIR      61  28  28 SE10      30.29F

$$
OHZ001>008-015>018-024>025-200000-
NORTHWEST OHIO

CITY           SKY/WX    TMP DP  RH WIND       PRES   REMARKS
DEFIANCE       SUNNY     55  26  32 E12       30.33R
FINDLAY        SUNNY     53  12  19 E14G22    30.32S
TOLEDO EXPRESS SUNNY     51  26  37 E12G20    30.34S
TOLEDO METCALF SUNNY     50  28  42 E12       30.36S
LIMA           SUNNY     56  24  29 E14       30.30S

$$
&&



USA.gov is the U.S. government's official web portal to all federal, state and local government web resources and services.